Location: Boley
(53.1150°N, 8.2269°W)
Time: 23:33:51
(UTC+00:00)

SL-16 R/B - Pass Details

Date: 15 May 2026
Orbit: 841 x 844 km, 71.0° (Epoch: 11 June)

Event Time Altitude Azimuth Distance (km) Brightness Sun altitude
Rises 22:46:37 0° 320° (NW) 3,415 7.0 -14.5°
Reaches altitude 10° 22:49:39 10° 305° (NW) 2,475 5.6 -14.7°
Maximum altitude 22:53:41 20° 259° (W) 1,846 4.1 -14.9°
Drops below altitude 10° 22:57:42 10° 214° (SSW) 2,462 4.3 -15.2°
Enters shadow 22:58:26 - 209° (SSW) 2,668 4.4 -15.2°
